Tracking 28790 objects as of 19-Apr-2024
HD Live streaming from Space Station
objects crossing your sky now

THORAD DELTA 1 DEB

Track THORAD DELTA 1 DEB now!
10-day predictions


NORAD ID: 8592
Int'l Code: 1974-089DF
Perigee: 1,448.2 km
Apogee: 1,649.4 km
Inclination: 101.8 °
Period: 116.9 minutes
Semi major axis: 7919 km
RCS: 0.0469 m2 (small)
Launch date: November 15, 1974
Source: United States (US)
Launch site: AIR FORCE WESTERN TEST RANGE (AFWTR)

Note: This is SATELLITE DEBRIS
Your satellite tracking list
Your tracking list is empty




NASA's NSSDC Master Catalog

Two Line Element Set (TLE):
1 08592U 74089DF  24109.27107904 -.00000093  00000-0 -40923-3 0  9993
2 08592 101.8444 211.3240 0127043  92.8304 292.4399 12.31773923220802
Source of the keplerian elements: AFSPC